Wind_Speed
108 109 109 112 112 111 105 98 97 97 95 95 95 92 92 95 94 88 83 79 76 72 66 57 52 56 59
107 104 105 104 102 101 102 99 92 92 93 93 94 93 92 88 88 84 80 75 68 65 60 51 56 57 56
101 101 100 98 97 96 93 92 87 85 85 83 81 81 82 77 75 78 71 69 62 61 49 46 53 58 62
90 91 91 91 90 89 89 88 86 85 83 81 78 77 76 75 72 73 66 58 59 56 53 56 61 63 61
88 87 88 88 90 90 87 86 85 84 82 80 76 75 72 69 67 66 64 63 65 59 59 62 66 68 69
86 88 88 87 85 82 80 80 80 80 78 73 70 69 70 68 69 70 69 70 67 64 64 65 67 69 70
81 81 81 82 81 79 77 73 72 76 74 69 69 70 70 70 71 70 70 65 62 66 67 67 66 65 64
74 75 75 76 74 74 73 73 72 71 72 69 69 66 63 63 62 65 66 69 66 65 69 72 74 72 72
71 72 73 73 73 73 73 72 71 68 65 63 69 66 65 65 63 63 64 67 71 74 71 70 71 70 73
75 76 75 75 75 74 74 72 71 75 75 77 81 76 70 68 66 68 67 63 65 69 71 72 73 73 75
81 80 79 78 78 77 76 76 75 74 78 79 81 81 77 77 74 74 77 73 74 73 71 69 71 71 70
90 90 90 89 87 86 86 84 83 83 84 82 81 84 83 82 83 84 82 81 80 79 79 80 79 78 76
98 98 99 99 98 96 93 92 91 89 89 92 90 90 87 87 89 88 93 91 91 89 88 86 85 85 83
102 105 106 106 106 106 104 102 98 97 96 97 97 97 97 96 95 93 96 96 93 94 94 93 93 92 91
93 97 100 103 108 110 110 111 108 108 108 108 108 106 103 103 101 101 99 98 98 99 97 94 94 93 92
85 87 89 91 93 97 99 100 103 106 109 115 112 113 114 112 110 110 110 109 107 107 104 103 100 97 95
81 83 86 88 90 91 92 92 94 97 100 102 102 101 102 105 115 117 118 118 117 116 112 109 106 104 103
Wind_Direction
259 259 260 260 264 266 267 265 265 268 269 269 268 268 269 271 274 273 274 274 276 275 274 269 263 257 268
256 257 259 262 264 268 269 271 271 270 268 267 267 268 270 271 270 270 270 272 272 270 271 258 253 254 252
257 259 260 261 263 264 266 268 268 267 266 266 266 266 267 268 267 269 269 267 264 266 261 247 241 254 254
260 261 262 262 262 262 262 263 265 266 266 266 265 264 265 264 259 263 264 260 260 256 249 239 241 249 255
258 259 260 260 260 261 262 262 262 264 263 263 261 263 259 259 257 254 259 251 256 256 249 248 248 250 253
258 258 259 259 260 260 260 260 261 261 262 260 257 256 254 255 255 256 253 253 253 254 253 255 253 254 256
256 256 257 258 259 259 258 257 255 256 258 256 254 254 252 255 256 256 253 252 247 248 251 250 253 258 260
256 257 257 258 258 258 259 258 256 254 256 254 254 250 252 253 255 256 254 255 255 253 249 253 254 259 258
257 257 258 257 257 257 256 255 254 254 254 256 256 256 255 250 252 254 254 252 250 251 254 252 254 254 258
257 257 256 257 257 256 255 254 250 245 245 241 248 252 253 254 254 258 258 249 248 251 255 252 254 256 257
257 256 255 254 255 255 254 253 253 251 249 250 248 251 253 255 255 255 255 256 256 259 259 258 259 261 263
260 259 258 257 255 253 254 254 253 253 254 253 251 250 249 249 249 251 252 253 254 256 253 255 259 259 262
260 259 259 259 259 257 255 254 253 252 250 253 254 253 252 250 251 251 253 252 253 253 254 255 257 259 260
261 260 260 260 259 259 259 258 255 252 251 251 250 251 252 253 252 251 252 254 254 255 255 255 256 258 260
265 264 263 263 262 261 260 258 258 257 255 253 252 251 250 252 253 252 251 251 252 252 253 255 257 257 258
267 265 264 263 262 262 261 260 259 259 258 258 256 253 252 249 249 250 250 250 251 252 253 253 254 254 256
265 263 262 262 261 260 260 258 257 256 256 256 256 255 253 251 252 250 248 247 246 248 249 250 250 251 252
Height
10516 10520 10522 10525 10526 10531 10539 10549 10554 10555 10554 10558 10559 10564 10567 10566 10566 10571 10575 10577 10578 10579 10582 10585 10587 10590 10592
10488 10493 10497 10501 10505 10508 10510 10516 10523 10527 10528 10532 10535 10538 10541 10543 10543 10548 10552 10555 10557 10559 10564 10569 10572 10575 10577
10464 10468 10473 10479 10484 10486 10489 10493 10499 10501 10503 10507 10511 10515 10516 10521 10522 10522 10531 10534 10539 10542 10547 10551 10557 10558 10561
10444 10445 10448 10452 10457 10463 10466 10470 10474 10475 10479 10482 10487 10491 10494 10498 10503 10504 10509 10514 10520 10526 10531 10535 10539 10542 10545
10418 10421 10424 10428 10431 10437 10442 10446 10450 10451 10456 10459 10464 10468 10472 10477 10482 10487 10491 10497 10501 10507 10514 10519 10523 10526 10529
10394 10398 10400 10403 10407 10413 10417 10422 10427 10428 10435 10438 10442 10447 10450 10456 10461 10466 10472 10478 10484 10489 10495 10499 10505 10509 10513
10370 10373 10377 10379 10385 10390 10394 10400 10404 10403 10411 10417 10422 10428 10432 10437 10443 10446 10452 10459 10466 10472 10477 10483 10486 10490 10493
10348 10350 10355 10356 10361 10366 10371 10375 10381 10385 10388 10398 10399 10406 10410 10416 10422 10428 10434 10438 10445 10452 10459 10464 10468 10472 10476
10327 10330 10331 10335 10338 10344 10347 10354 10360 10363 10366 10376 10380 10384 10391 10397 10400 10407 10413 10418 10424 10431 10438 10443 10448 10454 10458
10305 10308 10310 10312 10315 10321 10325 10331 10338 10344 10345 10354 10360 10364 10371 10378 10381 10385 10391 10399 10404 10410 10416 10422 10427 10433 10438
10278 10281 10285 10290 10292 10296 10302 10308 10314 10322 10323 10328 10338 10344 10350 10356 10360 10367 10373 10378 10385 10391 10397 10403 10407 10411 10416
10252 10254 10256 10260 10266 10270 10274 10281 10289 10295 10296 10303 10312 10317 10325 10332 10340 10341 10348 10355 10362 10369 10377 10382 10387 10394 10397
10221 10224 10225 10227 10231 10238 10246 10252 10259 10266 10271 10272 10281 10287 10297 10308 10314 10322 10322 10333 10337 10345 10353 10360 10366 10369 10376
10186 10189 10191 10195 10199 10201 10210 10215 10229 10235 10239 10245 10250 10257 10266 10275 10284 10294 10299 10304 10313 10320 10325 10331 10340 10347 10352
10148 10150 10152 10156 10159 10162 10170 10176 10184 10190 10197 10207 10216 10227 10237 10243 10253 10261 10270 10276 10285 10291 10296 10304 10312 10323 10329
10112 10114 10116 10119 10121 10122 10129 10136 10143 10148 10155 10156 10170 10186 10198 10211 10221 10228 10235 10243 10251 10259 10267 10275 10288 10298 10306
10077 10079 10082 10082 10084 10086 10091 10098 10104 10109 10113 10118 10126 10137 10152 10171 10178 10190 10200 10207 10214 10223 10237 10249 10260 10268 10277